sat.trackr.live / text

‹ back to catalog

STARLINK-30249

NORAD 57618 · 2023-119S

PAYLOAD ACTIVE UNKNOWN

§ Identity

Operator
Country
US
Launch date
2023-08-11
Launch site
AFETR
Launch vehicle
Mass (kg)
RCS (m²)

Purposes: comms

External: N2YO · Heavens-Above · Gunter

§ Orbital elements

Epoch: 2026-05-25T00:33:32.868576Z

Period
94.27 min
Inclination
43.0047°
Eccentricity
0.0001454
Mean motion
15.27578408 rev/d
Perigee alt
482.1 km
Apogee alt
484.1 km
Semi-major
6,861.2 km
B*
2.6630e-5
RAAN
10.2323°
Arg perigee
249.5547°
Mean anomaly
110.5148°
Rev number
15,476

§ Raw data

STARLINK-302491 57618U 23119S   26145.02329709  .00000471  00000+0  26630-4 0  99952 57618  43.0047  10.2323 0001454 249.5547 110.5148 15.27578408154768

JSON: /api/v1/satellites/57618 · /tle

For live sub-satellite position, see the globe view (requires WebGL).

§ Visibility from observer

Set your observer location to see the next 7 days of passes ≥ 10°. The values pass through the URL so the page stays shareable.

No JS? Fill the form by hand. The geolocation button needs JavaScript.